Radiation Dose at Monitoring Post of Fukushima Daini Nuclear Power Station
Date,Time,MP-1(microSv/h),MP-2(microSv/h),MP-3(microSv/h),MP-4(microSv/h),MP-5(microSv/h),MP-6(microSv/h),MP-7(microSv/h),Wind Direction,Wind Velocity(m/s),Rain
2015/04/21,00:00,0.522,0.321,0.547,0.506,0.546,0.243,0.213,south,9.9,No
2015/04/21,00:10,0.526,0.322,0.542,0.506,0.543,0.245,0.213,south,10.7,No
2015/04/21,00:20,0.522,0.322,0.543,0.505,0.547,0.243,0.214,south,10.6,Yes
2015/04/21,00:30,0.526,0.324,0.545,0.505,0.544,0.246,0.213,south,9.4,Yes
2015/04/21,00:40,0.523,0.324,0.544,0.505,0.547,0.244,0.215,south,8.1,Yes
2015/04/21,00:50,0.529,0.324,0.545,0.508,0.545,0.245,0.214,west,1.2,Yes
2015/04/21,01:00,0.523,0.326,0.543,0.507,0.546,0.245,0.216,north,3.1,Yes
2015/04/21,01:10,0.525,0.322,0.544,0.508,0.544,0.245,0.214,north-northeast,1.4,Yes
2015/04/21,01:20,0.523,0.324,0.540,0.503,0.544,0.244,0.214,north-northeast,1.1,Yes
2015/04/21,01:30,0.524,0.322,0.544,0.503,0.545,0.245,0.214,east-northeast,0.6,Yes
2015/04/21,01:40,0.522,0.325,0.538,0.501,0.543,0.244,0.213,south,0.6,Yes
2015/04/21,01:50,0.523,0.323,0.543,0.506,0.546,0.246,0.216,east-southeast,1.4,Yes
2015/04/21,02:00,0.525,0.324,0.539,0.500,0.542,0.245,0.215,east-northeast,1.9,Yes
2015/04/21,02:10,0.523,0.323,0.544,0.506,0.547,0.246,0.215,south-southeast,1.5,Yes
2015/04/21,02:20,0.525,0.325,0.538,0.501,0.544,0.245,0.214,south-southeast,2.3,Yes
2015/04/21,02:30,0.524,0.324,0.543,0.506,0.548,0.247,0.215,southeast,3.7,Yes
2015/04/21,02:40,0.526,0.328,0.538,0.501,0.543,0.246,0.216,southeast,4.2,Yes
2015/04/21,02:50,0.523,0.324,0.543,0.507,0.549,0.246,0.217,southeast,2.9,Yes
2015/04/21,03:00,0.528,0.326,0.539,0.502,0.542,0.247,0.215,southeast,2.8,Yes
2015/04/21,03:10,0.521,0.323,0.541,0.506,0.549,0.246,0.216,southeast,1.0,No
2015/04/21,03:20,0.526,0.324,0.540,0.501,0.542,0.245,0.216,-,CALM,No
2015/04/21,03:30,0.522,0.323,0.544,0.506,0.547,0.244,0.214,northwest,3.1,No
2015/04/21,03:40,0.527,0.324,0.539,0.501,0.541,0.244,0.212,northwest,4.8,No
2015/04/21,03:50,0.521,0.322,0.542,0.505,0.547,0.244,0.213,north-northwest,4.5,No
2015/04/21,04:00,0.526,0.324,0.538,0.501,0.541,0.243,0.213,northwest,3.9,No
2015/04/21,04:10,0.522,0.320,0.543,0.506,0.546,0.242,0.212,northwest,5.8,No
2015/04/21,04:20,0.527,0.323,0.539,0.500,0.543,0.244,0.212,northwest,4.9,No
2015/04/21,04:30,0.523,0.321,0.544,0.506,0.545,0.242,0.213,northwest,3.8,No
2015/04/21,04:40,0.526,0.323,0.539,0.501,0.543,0.243,0.212,north-northwest,4.6,No
2015/04/21,04:50,0.522,0.321,0.544,0.504,0.547,0.241,0.213,northwest,4.6,No
2015/04/21,05:00,0.527,0.324,0.541,0.502,0.542,0.243,0.212,northwest,4.9,No
2015/04/21,05:10,0.523,0.321,0.546,0.506,0.548,0.242,0.212,northwest,6.4,No
2015/04/21,05:20,0.527,0.322,0.541,0.501,0.542,0.243,0.213,northwest,5.1,Yes
2015/04/21,05:30,0.523,0.322,0.543,0.507,0.549,0.242,0.212,northwest,6.1,Yes
2015/04/21,05:40,0.527,0.325,0.542,0.503,0.544,0.243,0.213,northwest,7.3,No
2015/04/21,05:50,0.526,0.321,0.545,0.506,0.548,0.243,0.212,west-northwest,8.6,No
2015/04/21,06:00,0.527,0.324,0.542,0.504,0.543,0.244,0.213,west-northwest,10.1,No
2015/04/21,06:10,0.527,0.321,0.546,0.505,0.548,0.242,0.213,west-northwest,10.8,No
2015/04/21,06:20,0.528,0.323,0.543,0.505,0.543,0.244,0.213,west-northwest,8.7,No
2015/04/21,06:30,0.525,0.322,0.546,0.505,0.549,0.242,0.213,northwest,9.5,No
2015/04/21,06:40,0.528,0.325,0.543,0.506,0.542,0.244,0.213,west-northwest,6.1,No
2015/04/21,06:50,0.527,0.323,0.546,0.506,0.548,0.243,0.213,north,2.5,No
2015/04/21,07:00,0.526,0.325,0.543,0.506,0.545,0.243,0.213,west-northwest,5.4,No
2015/04/21,07:10,0.526,0.322,0.545,0.504,0.549,0.244,0.214,north-northwest,2.3,No
2015/04/21,07:20,0.526,0.326,0.541,0.506,0.544,0.245,0.213,north,1.9,No
2015/04/21,07:30,0.527,0.324,0.547,0.505,0.546,0.243,0.213,northwest,4.2,No
2015/04/21,07:40,0.526,0.323,0.544,0.508,0.545,0.244,0.213,northwest,5.0,No
2015/04/21,07:50,0.528,0.322,0.547,0.504,0.546,0.243,0.214,northwest,4.2,No
2015/04/21,08:00,0.526,0.324,0.545,0.508,0.547,0.245,0.212,northwest,3.6,No
2015/04/21,08:10,0.528,0.321,0.548,0.504,0.547,0.243,0.213,north-northwest,1.4,No
2015/04/21,08:20,0.526,0.324,0.542,0.509,0.544,0.244,0.214,north,2.8,No
2015/04/21,08:30,0.527,0.321,0.549,0.506,0.546,0.244,0.214,north,3.2,No
2015/04/21,08:40,0.527,0.324,0.544,0.508,0.546,0.243,0.214,north,3.0,No
2015/04/21,08:50,0.529,0.322,0.547,0.506,0.546,0.244,0.214,northwest,2.1,No
2015/04/21,09:00,0.528,0.324,0.542,0.509,0.547,0.244,0.214,north,2.6,No
2015/04/21,09:10,0.528,0.323,0.549,0.506,0.547,0.243,0.214,north-northwest,4.2,No
2015/04/21,09:20,0.527,0.326,0.544,0.509,0.544,0.245,0.214,north,5.4,No
2015/04/21,09:30,0.530,0.322,0.548,0.505,0.549,0.243,0.213,north,5.3,No
2015/04/21,09:40,0.526,0.325,0.543,0.509,0.543,0.243,0.214,north-northwest,6.1,No
2015/04/21,09:50,0.531,0.322,0.548,0.506,0.548,0.244,0.213,north-northwest,4.5,No
2015/04/21,10:00,0.527,0.325,0.546,0.509,0.544,0.245,0.215,north,4.7,No
2015/04/21,10:10,0.530,0.321,0.549,0.507,0.550,0.243,0.215,north-northwest,4.2,No
2015/04/21,10:20,0.527,0.322,0.547,0.506,0.545,0.244,0.216,north-northeast,4.9,No
2015/04/21,10:30,0.533,0.322,0.547,0.508,0.550,0.245,0.215,north-northeast,4.9,No
2015/04/21,10:40,0.529,0.325,0.548,0.506,0.543,0.244,0.214,north-northeast,5.9,No
2015/04/21,10:50,0.529,0.323,0.546,0.508,0.552,0.245,0.214,north-northeast,4.6,No
2015/04/21,11:00,0.530,0.325,0.549,0.507,0.545,0.245,0.214,north-northeast,4.4,No
2015/04/21,11:10,0.531,0.325,0.547,0.510,0.551,0.245,0.214,north-northeast,4.8,No
2015/04/21,11:20,0.529,0.324,0.549,0.506,0.547,0.244,0.213,north,3.6,No
2015/04/21,11:30,0.530,0.325,0.543,0.510,0.548,0.245,0.215,north-northeast,5.2,No
2015/04/21,11:40,0.529,0.324,0.549,0.506,0.548,0.244,0.214,north,4.7,No
2015/04/21,11:50,0.530,0.324,0.545,0.510,0.545,0.245,0.216,north,4.5,No
2015/04/21,12:00,0.529,0.323,0.548,0.506,0.549,0.243,0.214,north,6.4,No
2015/04/21,12:10,0.530,0.324,0.549,0.510,0.545,0.243,0.215,north-northeast,5.8,No
2015/04/21,12:20,0.527,0.323,0.542,0.511,0.547,0.245,0.216,north-northeast,5.1,No
2015/04/21,12:30,0.530,0.325,0.550,0.505,0.548,0.245,0.214,north-northeast,4.8,No
2015/04/21,12:40,0.528,0.324,0.548,0.511,0.544,0.244,0.216,north-northeast,4.2,No
2015/04/21,12:50,0.532,0.324,0.546,0.510,0.552,0.244,0.214,north-northeast,5.4,No
2015/04/21,13:00,0.530,0.325,0.549,0.509,0.545,0.245,0.216,north-northeast,4.2,No
2015/04/21,13:10,0.533,0.324,0.547,0.511,0.550,0.246,0.216,north-northeast,4.7,No
2015/04/21,13:20,0.530,0.324,0.551,0.508,0.548,0.245,0.215,north-northeast,3.9,No
2015/04/21,13:30,0.533,0.324,0.547,0.515,0.553,0.246,0.215,north-northeast,2.9,No
2015/04/21,13:40,0.529,0.325,0.552,0.507,0.549,0.244,0.216,northeast,2.8,No
2015/04/21,13:50,0.533,0.324,0.548,0.512,0.549,0.245,0.215,northeast,2.9,No
2015/04/21,14:00,0.528,0.325,0.551,0.508,0.549,0.245,0.215,east-northeast,2.0,Yes
2015/04/21,14:10,0.533,0.325,0.547,0.515,0.552,0.246,0.216,east,3.4,No
2015/04/21,14:20,0.527,0.324,0.552,0.512,0.549,0.245,0.216,east-northeast,2.9,No
2015/04/21,14:30,0.533,0.326,0.549,0.512,0.553,0.246,0.217,east-northeast,3.2,No
2015/04/21,14:40,0.529,0.324,0.551,0.512,0.548,0.245,0.216,east,3.1,No
2015/04/21,14:50,0.534,0.326,0.547,0.511,0.550,0.246,0.217,east,2.3,No
2015/04/21,15:00,0.530,0.324,0.550,0.512,0.548,0.246,0.216,east-southeast,1.9,No
2015/04/21,15:10,0.532,0.326,0.545,0.512,0.552,0.246,0.216,east-southeast,2.0,No
2015/04/21,15:20,0.530,0.324,0.550,0.514,0.548,0.246,0.215,east-southeast,1.7,No
2015/04/21,15:30,0.532,0.324,0.545,0.509,0.546,0.246,0.215,south,1.4,No
2015/04/21,15:40,0.529,0.326,0.551,0.512,0.550,0.245,0.217,south,1.8,No
2015/04/21,15:50,0.532,0.325,0.547,0.509,0.544,0.246,0.216,south,2.2,No
2015/04/21,16:00,0.527,0.325,0.551,0.514,0.550,0.244,0.215,south,0.9,No
2015/04/21,16:10,0.537,0.325,0.547,0.509,0.547,0.248,0.216,south-southwest,1.5,No
2015/04/21,16:20,0.528,0.324,0.553,0.513,0.550,0.246,0.217,south,2.2,No
2015/04/21,16:30,0.535,0.325,0.547,0.511,0.547,0.246,0.216,south-southeast,1.5,No
2015/04/21,16:40,0.529,0.323,0.554,0.515,0.552,0.245,0.216,east-northeast,1.8,No
2015/04/21,16:50,0.535,0.325,0.548,0.511,0.548,0.245,0.216,north-northeast,6.5,No
2015/04/21,17:00,0.530,0.324,0.552,0.514,0.549,0.245,0.216,north-northeast,7.7,No
2015/04/21,17:10,0.534,0.325,0.548,0.510,0.548,0.246,0.215,north,8.6,No
2015/04/21,17:20,0.531,0.326,0.552,0.512,0.554,0.246,0.216,north,7.8,No
2015/04/21,17:30,0.534,0.324,0.548,0.511,0.549,0.246,0.216,north,7.5,No
2015/04/21,17:40,0.531,0.325,0.551,0.512,0.552,0.246,0.216,north,7.7,No
2015/04/21,17:50,0.529,0.325,0.550,0.514,0.547,0.247,0.217,north-northeast,7.7,No
2015/04/21,18:00,0.534,0.327,0.552,0.511,0.551,0.246,0.216,north-northeast,8.9,No
2015/04/21,18:10,0.529,0.325,0.552,0.515,0.552,0.245,0.216,north-northeast,7.5,No
2015/04/21,18:20,0.534,0.325,0.550,0.512,0.552,0.246,0.216,north-northeast,8.1,No
2015/04/21,18:30,0.533,0.327,0.554,0.512,0.552,0.246,0.215,north-northeast,8.7,No
2015/04/21,18:40,0.533,0.325,0.549,0.513,0.550,0.247,0.216,north-northeast,9.6,No
2015/04/21,18:50,0.532,0.325,0.552,0.512,0.549,0.246,0.217,north,6.6,No
2015/04/21,19:00,0.531,0.325,0.549,0.515,0.549,0.244,0.216,north,5.4,No
2015/04/21,19:10,0.535,0.326,0.553,0.511,0.548,0.246,0.216,north,5.9,No
2015/04/21,19:20,0.530,0.327,0.552,0.514,0.551,0.245,0.216,north,5.9,No
2015/04/21,19:30,0.534,0.324,0.550,0.512,0.548,0.246,0.216,north,4.4,No
2015/04/21,19:40,0.534,0.325,0.552,0.512,0.549,0.246,0.216,north,4.7,No
2015/04/21,19:50,0.530,0.326,0.550,0.513,0.550,0.245,0.217,north,4.7,No
2015/04/21,20:00,0.535,0.325,0.553,0.511,0.549,0.246,0.216,north,5.1,No
2015/04/21,20:10,0.531,0.326,0.554,0.513,0.549,0.246,0.216,north,3.6,No
2015/04/21,20:20,0.534,0.324,0.549,0.512,0.550,0.246,0.216,north-northwest,3.4,No
2015/04/21,20:30,0.531,0.326,0.555,0.513,0.549,0.247,0.215,north-northwest,3.6,No
2015/04/21,20:40,0.531,0.327,0.550,0.516,0.551,0.245,0.217,north,3.6,No
2015/04/21,20:50,0.533,0.324,0.552,0.511,0.548,0.246,0.216,north,4.3,No
2015/04/21,21:00,0.531,0.326,0.553,0.513,0.550,0.247,0.216,north,5.3,No
2015/04/21,21:10,0.533,0.325,0.549,0.511,0.547,0.245,0.216,north,5.3,No
2015/04/21,21:20,0.531,0.324,0.554,0.512,0.550,0.246,0.218,north,4.7,No
2015/04/21,21:30,0.532,0.326,0.550,0.514,0.550,0.247,0.217,north-northwest,4.5,No
2015/04/21,21:40,0.533,0.325,0.552,0.512,0.548,0.246,0.217,north-northwest,4.3,No
2015/04/21,21:50,0.530,0.326,0.555,0.510,0.547,0.246,0.217,north-northwest,4.8,No
2015/04/21,22:00,0.535,0.326,0.551,0.513,0.552,0.246,0.216,north-northwest,4.9,No
2015/04/21,22:10,0.531,0.326,0.553,0.512,0.547,0.246,0.216,north-northwest,5.3,No
2015/04/21,22:20,0.533,0.327,0.552,0.513,0.551,0.245,0.219,north-northwest,5.0,No
2015/04/21,22:30,0.534,0.325,0.549,0.514,0.550,0.247,0.217,north-northwest,5.3,No
2015/04/21,22:40,0.531,0.325,0.555,0.514,0.549,0.246,0.216,north-northwest,5.5,No
2015/04/21,22:50,0.535,0.325,0.552,0.516,0.552,0.245,0.217,north,6.0,No
2015/04/21,23:00,0.532,0.326,0.550,0.514,0.548,0.247,0.217,north,6.3,No
2015/04/21,23:10,0.535,0.325,0.552,0.512,0.549,0.246,0.219,north,5.6,No
2015/04/21,23:20,0.534,0.326,0.550,0.514,0.552,0.246,0.216,north,6.3,No
2015/04/21,23:30,0.531,0.326,0.551,0.512,0.548,0.247,0.219,north,6.1,No
2015/04/21,23:40,0.536,0.325,0.554,0.511,0.548,0.246,0.217,north,5.3,No
2015/04/21,23:50,0.532,0.327,0.549,0.515,0.550,0.246,0.218,north,5.3,No
